Zurück zum Katalog

STARLINK-5214

AktivKommunikationVLEO
NORAD 54762·PAYLOAD·🇺🇸 United States

Gestartet Dec 17, 2022 von Cape Canaveral Space Force Station

Loading…

Nächste Überflüge (nächste 24 Stunden)

TLE

AktuellSource: CelesTrak SupGP

Epoche: Sep 15, 2026, 01:37 UTC

1 54762C 22175E   26258.06784722 -.00004532  00000+0 -14583-3 0  2587
2 54762  53.1561 260.1102 0001524  90.4474  50.5565 15.31684904    17

Verfolge STARLINK-5214 in Echtzeit mit AllMySat

Download on the App Store